• MPC Preparation (Info)

  • MPEC 2022-V159 : 2022 VC2

    The following Minor Planet Electronic Circular may be linked-to from your own Web pages, but must not otherwise be redistributed electronically.

    A form allowing access to any MPEC is at the bottom of this page.


    Read MPEC 2022-V158 Read MPEC 2022-V160


    M.P.E.C. 2022-V159                            Issued 2022 November 14, 13:21 UT
    
         The Minor Planet Electronic Circulars contain information on unusual
             minor planets, routine data on comets and natural satellites,
             and occasional editorial announcements.  They are published
        on behalf of Division F of the International Astronomical Union by the
              Minor Planet Center, Smithsonian Astrophysical Observatory,
                              Cambridge, MA 02138, U.S.A.
    			  
                 Prepared using the Tamkin Foundation Computer Network
    
                                  MPC@CFA.HARVARD.EDU
                URL https://www.minorplanetcenter.net/    ISSN 1523-6714
    
                                    2022 VC2                                 
    
    
    Observations:
         K22V02C  C2022 11 01.08056 18 09 36.52 +50 00 16.9          20.6 GVEV159G96
         K22V02C  C2022 11 01.08598 18 09 50.36 +49 59 59.2          21.1 GVEV159G96
         K22V02C*KC2022 11 11.77253 01 50 24.710-31 54 13.39         19.8 GXEV159L87
         K22V02C KC2022 11 11.77407 01 50 25.459-31 54 22.18         19.9 GXEV159L87
         K22V02C KC2022 11 11.77869 01 50 27.562-31 54 48.53         19.9 GXEV159L87
         K22V02C KC2022 11 11.78330 01 50 29.590-31 55 14.66         19.5 GXEV159L87
         K22V02C KC2022 11 11.78485 01 50 30.314-31 55 23.23         19.6 GXEV159L87
         K22V02C KC2022 11 11.82882 01 50 49.714-31 59 28.79         19.7 GXEV159L87
         K22V02C KC2022 11 11.82956 01 50 50.021-31 59 33.68         19.6 GXEV159L87
         K22V02C KC2022 11 11.83024 01 50 50.347-31 59 36.71         19.7 GXEV159L87
         K22V02C KC2022 11 11.83372 01 50 51.830-31 59 55.86         19.7 GXEV159L87
         K22V02C KC2022 11 11.84440 01 50 56.453-32 00 54.11         20.0 GXEV159L87
         K22V02C KC2022 11 11.85521 01 51 01.164-32 01 52.82               XEV159L87
         K22V02C KC2022 11 12.80135 01 58 18.672-33 14 10.43         19.9 GXEV159L87
         K22V02C KC2022 11 12.80435 01 58 19.714-33 14 23.14         19.8 GXEV159L87
         K22V02C KC2022 11 12.80729 01 58 20.777-33 14 35.66         19.7 GXEV159L87
         K22V02C KC2022 11 12.92297 01 59 00.372-33 22 22.73         19.8 GXEV159L87
         K22V02C KC2022 11 12.92464 01 59 00.934-33 22 29.10         19.8 GXEV159L87
         K22V02C KC2022 11 13.78227 02 04 31.260-34 12 02.66         19.8 GXEV159L87
         K22V02C KC2022 11 13.79037 02 04 33.634-34 12 30.20         19.8 GXEV159L87
         K22V02C KC2022 11 13.79852 02 04 36.019-34 12 57.74         20.2 GXEV159L87
         K22V02C hC2022 11 14.45224 02 08 07.13 -34 43 59.3          19.8 GXEV159Q62
         K22V02C hC2022 11 14.45864 02 08 08.81 -34 44 16.8          19.6 GXEV159Q62
    
    Observer details:
    G96 Mt. Lemmon Survey.  Observer J. K. Hogan.  Measurers B. Gray, D. Rankin,
        F. C. Shelly.  1.5-m reflector + 10K CCD.
    L87 Moonbase South Observatory, Hakos.  Observer G. Duszanowicz.  Measurer J.
        Camarasa.  0.28-m f/1.9 reflector + CCD, 0.36-m f/7.7 reflector + CCD.
    Q62 iTelescope Observatory, Siding Spring.  Observer D. Husar.  0.51-m f/4
        reflector + CCD.
    
    Orbital elements:
    2022 VC2                                                 Earth MOID = 0.0111 AU
    Epoch 2022 Aug. 9.0 TT = JDT 2459800.5                  Veres                   
    M 350.35119              (2000.0)            P               Q                  
    n   0.96266518     Peri.   83.78699     +0.55563936     +0.80193164             
    a   1.0158257      Node   222.51612     -0.83137948     +0.53318770             
    e   0.1754613      Incl.   18.95156     -0.00854801     +0.26947451             
    P   1.02           H   24.51          G   0.15           U   9                  
    Residuals in seconds of arc
    221101 G96  0.8+  0.0     221111 L87  0.1+  0.8-    221112 L87  0.6+  0.2+
    221101 G96  0.8-  0.0     221111 L87  0.5+  0.0     221112 L87  0.6+  0.1+
    221111 L87  0.3+  0.5-    221111 L87  0.2+  0.2-    221113 L87  0.2-  0.1+
    221111 L87  0.9+  0.4-    221111 L87  0.3+  0.3-    221113 L87  0.3-  0.1+
    221111 L87  1.0+  0.4-    221111 L87  1.2+  0.8-    221113 L87  0.2-  0.1+
    221111 L87  0.4+  0.3-    221112 L87  0.1+  0.3-    221114 Q62  0.1-  0.3-
    221111 L87  0.7+  0.0     221112 L87  0.1-  0.1-    221114 Q62  0.4+  0.2+
    221111 L87  0.3+  0.1+    221112 L87  0.1+  0.1-
    
    Ephemeris:
    2022 VC2                 a,e,i = 1.02, 0.18, 19                  q = 0.8376
    Date    TT    R. A. (2000) Decl.     Delta      r    Elong.  Phase     V
    2022 10 15    15 29 38.5 +44 21 14   0.1366  0.9374    60.4   112.3    24.4
    ...
    2022 10 30    17 03 54.5 +49 46 25   0.04069 0.9824    73.3   104.4    21.4
    ...
    2022 11 07    00 27 45.9 -12 58 40   0.02177 1.0066   134.9    44.2    17.9
    ...
    2022 11 13    01 59 33.2 -33 26 51   0.05754 1.0246   126.0    51.4    20.3
    2022 11 14    02 05 38.1 -34 22 52   0.06399 1.0275   125.0    52.1    20.5
    2022 11 15    02 10 43.8 -35 06 33   0.07048 1.0305   124.1    52.6    20.8
    ...
    2022 11 21    02 29 46.0 -37 12 19   0.1099  1.0479   120.4    54.4    21.8
    ...
    2022 11 29    02 42 39.5 -37 29 43   0.1626  1.0702   117.0    55.2    22.7
    ...
    2022 12 14    02 58 12.3 -35 31 25   0.2601  1.1083   112.0    55.5    23.8
    
    M. P. C. Staff               (C) Copyright 2022 MPC           M.P.E.C. 2022-V159
    


    Read MPEC 2022-V158 Read MPEC 2022-V160


    MPEC number:

    Enter an MPEC number in one of the following forms:

    • 1997-B01 (the full form)
    • J97B01 (the packed version of the full form)
    • B01 (the abbreviated form)